AMAZONAS 3

Last updated on Sun Jun 21 2026 00:03:05 GMT+0000 (Coordinated Universal Time)

1 39078U 13006A 26171.37993708 -.00000287 00000+0 00000+0 0 9996 2 39078 0.0108 248.8820 0002138 243.2053 212.2865 1.00271547 44947
UTC large
Height (km)
Speed (km/s)
/
Latitude / Longitude
Inclination (degrees)
Orbital Period (minutes)
Azimuth
Elevation
Range (km)
Doppler Factor

Next 0 passes for location: London (51.5072 / 0.1276)

No passes found over London.
AMAZONAS 3